Regional Weather Roundup
Issued by NWS

Home | Current Version | Previous Version | Text Only | Print | Product List | Glossary Off
Versions: 1 2 3 4 5 6 7 8 9 10 11 12 13 14 15 16 17 18 19 20 21 22 23 24 25 26 27 28 29 30 31 32 33 34 35 36 37 38 39 40 41 42 43 44 45 46 47 48 49 50

000
ASUS44 KMEG 210500
RWRTN
TENNESSEE HOURLY STATE WEATHER ROUNDUP
NATIONAL WEATHER SERVICE MEMPHIS TN
1100 PM CST SAT DEC 20 2014

TNZ002-004-019-021-049-052-054-088>092-210600-
WEST TENNESSEE

CITY           SKY/WX    TMP DP  RH WIND       PRES   REMARKS
MEMPHIS INTL   PTCLDY    39  31  72 E5        30.25S
NWS MEMPHIS      N/A     37 N/A N/A MISG        N/A
JACKSON        CLEAR     30  27  88 CALM      30.26F
DYERSBURG      CLEAR     32  19  59 NE3       30.28S
UNION CITY     CLEAR     28  27  93 CALM      30.26S
PARIS          CLEAR     27  25  93 CALM      30.27S
LEXINGTON      CLEAR     28  27  93 NE3       30.25S
SAVANNAH       CLEAR     28  28 100 CALM      30.26S
$$

TNZ008-025-027-028-033-062-065-066-210600-
NORTH MIDDLE TENNESSEE

CITY           SKY/WX    TMP DP  RH WIND       PRES   REMARKS
NASHVILLE      PTCLDY    30  27  88 CALM      30.28R
CLARKSVILLE    CLEAR     26  24  92 CALM      30.28S
COOKEVILLE     CLEAR     25  21  86 CALM      30.24R
CROSSVILLE     CLEAR     32  24  72 NE3       30.23R
$$

TNZ061-075-076-078-094-096-097-210600-
SOUTH MIDDLE TENNESSEE

CITY           SKY/WX    TMP DP  RH WIND       PRES   REMARKS
FAYETTEVILLE   CLEAR     30  25  80 MISG      30.23S
TULLAHOMA      CLEAR     28  25  86 CALM      30.24S
WINCHESTER     CLEAR     27  25  93 CALM      30.24S
SHELBYVILLE    CLEAR     28  27  93 CALM      30.26S
$$

TNZ017-018-042-046-047-210600-
NORTHEAST TENNESSEE

CITY           SKY/WX    TMP DP  RH WIND       PRES   REMARKS
TRI CITIES     CLOUDY    39  37  92 CALM      30.22F FOG
ELIZABETHTON   CLOUDY    37  36  93 CALM      30.21F FOG
$$

TNZ012-013-036-069-073-074-210600-
CENTRAL EAST TENNESSEE

CITY           SKY/WX    TMP DP  RH WIND       PRES   REMARKS
KNOXVILLE      CLOUDY    40  35  83 N7        30.23S
OAK RIDGE      CLEAR     32  29  88 CALM      30.26R
GATLINBURG     CLOUDY    37  37 100 CALM      30.23S
$$

TNZ083-085-099-210600-
SOUTHEAST TENNESSEE

CITY           SKY/WX    TMP DP  RH WIND       PRES   REMARKS
CHATTANOOGA    PTCLDY    33  30  88 CALM      30.24S
$$

SKY/WX REPORTED AS FAIR MEANS FEW OR NO CLOUDS BELOW
12 THOUSAND FEET.




USA.gov is the U.S. government's official web portal to all federal, state and local government web resources and services.